Weather History for KSOA - March, 2014

Change the Weather History Date:

Wednesday, March 12, 2014

  Actual Average (KOZA) Record (KOZA)
Temperature  
Mean Temperature 50 °F -  
Max Temperature 64 °F 70 °F 82 °F (2012)
Min Temperature 37 °F 43 °F 33 °F (2015)
Degree Days  
Heating Degree Days 14    
Moisture  
Dew Point 26 °F    
Average Humidity 42    
Maximum Humidity 61    
Minimum Humidity 22    
Precipitation  
Precipitation 0.00 in - - ()
Sea Level Pressure  
Sea Level Pressure 30.22 in    
Wind  
Wind Speed 16 mph (NNE)    
Max Wind Speed 32 mph    
Max Gust Speed 41 mph    
Visibility 10 miles    
Events      
Averages and records for this station are not official NWS values.
T = Trace of Precipitation, MM = Missing Value Source: NWS Daily Summary

Daily Weather History Graph

Daily Weather History Graph

Search for Another Location

Airport or City:

Trip Planner

Search our weather history database for the weather conditions in past years. The results will help you decide how hot, cold, wet, or windy it might be!

Date:

Astronomy

Mar. 12, 2014 Rise Set
Actual Time 7:56 AM CDT 7:48 PM CDT
Civil Twilight 7:32 AM CDT 8:12 PM CDT
Nautical Twilight 7:04 AM CDT 8:40 PM CDT
Astronomical Twilight 6:36 AM CDT 9:08 PM CDT
Moon 4:32 PM CDT (3/12) 5:16 AM CDT (3/12)
Length of Visible Light 12h 40m
Length of Day
11h 52m
Waxing Gibbous, 85% of the Moon is Illuminated
Mar 12
Waxing Gibbous
Mar 16
Full
Mar 23
Last Quarter
Mar 30
New
Apr 7
First Quarter

Hourly Weather History & Observations

Time (CDT) Temp. Windchill Dew Point Humidity Pressure Visibility Wind Dir Wind Speed Gust Speed Precip Events Conditions
12:15 AM 48.2 °F - 28.4 °F 46% 29.85 in 10.0 mi NNE 3.5 mph - N/A   Clear
12:35 AM 62.6 °F - 23.0 °F 22% 29.90 in 10.0 mi North 11.5 mph - N/A   Clear
12:55 AM 64.4 °F - 33.8 °F 32% 29.93 in 8.0 mi NNE 13.8 mph 31.1 mph N/A   Clear
1:15 AM 60.8 °F - 35.6 °F 39% 29.94 in 4.0 mi NNE 26.5 mph 38.0 mph N/A   Haze
1:35 AM 57.2 °F - 33.8 °F 41% 29.96 in 6.0 mi NNE 21.9 mph 33.4 mph N/A   Haze
1:55 AM 57.2 °F - 33.8 °F 41% 29.98 in 6.0 mi NNE 17.3 mph 31.1 mph N/A   Haze
2:15 AM 53.6 °F - 33.8 °F 47% 30.01 in 6.0 mi NNE 23.0 mph 35.7 mph N/A   Haze
2:35 AM 51.8 °F - 33.8 °F 50% 30.02 in 7.0 mi NNE 19.6 mph 26.5 mph N/A   Clear
2:55 AM 51.8 °F - 32.0 °F 47% 30.04 in 7.0 mi NNE 18.4 mph 29.9 mph N/A   Clear
3:15 AM 48.2 °F - 32.0 °F 54% 30.05 in 9.0 mi NNE 18.4 mph 24.2 mph N/A   Clear
3:35 AM 48.2 °F - 32.0 °F 54% 30.06 in 10.0 mi NNE 19.6 mph 29.9 mph N/A   Clear
3:55 AM 48.2 °F - 32.0 °F 54% 30.06 in 10.0 mi NNE 20.7 mph 31.1 mph N/A   Clear
4:15 AM 46.4 °F 39.2 °F 32.0 °F 57% 30.08 in 10.0 mi NNE 18.4 mph 26.5 mph N/A   Clear
4:35 AM 46.4 °F 39.2 °F 32.0 °F 57% 30.08 in 10.0 mi NNE 18.4 mph 25.3 mph N/A   Clear
4:55 AM 46.4 °F 37.9 °F 32.0 °F 57% 30.08 in 9.0 mi North 25.3 mph 38.0 mph N/A   Clear
5:15 AM 46.4 °F 38.1 °F 32.0 °F 57% 30.10 in 9.0 mi NNE 24.2 mph 35.7 mph N/A   Clear
5:35 AM 44.6 °F 36.6 °F 32.0 °F 61% 30.13 in 10.0 mi North 19.6 mph 29.9 mph N/A   Clear
5:55 AM 44.6 °F 37.4 °F 32.0 °F 61% 30.14 in 10.0 mi North 16.1 mph 25.3 mph N/A   Clear
6:15 AM 44.6 °F 37.4 °F 30.2 °F 57% 30.16 in 10.0 mi North 16.1 mph 27.6 mph N/A   Clear
6:35 AM 42.8 °F 35.1 °F 30.2 °F 61% 30.17 in 10.0 mi North 16.1 mph 24.2 mph N/A   Clear
6:55 AM 42.8 °F 35.4 °F 30.2 °F 61% 30.17 in 10.0 mi North 15.0 mph 21.9 mph N/A   Clear
7:15 AM 42.8 °F 35.1 °F 30.2 °F 61% 30.18 in 10.0 mi North 16.1 mph 25.3 mph N/A   Clear
7:35 AM 42.8 °F 34.8 °F 30.2 °F 61% 30.20 in 10.0 mi North 17.3 mph 29.9 mph N/A   Clear
7:55 AM 42.8 °F 35.4 °F 30.2 °F 61% 30.22 in 10.0 mi North 15.0 mph 21.9 mph N/A   Clear
8:15 AM 42.8 °F 34.8 °F 30.2 °F 61% 30.23 in 10.0 mi North 17.3 mph 25.3 mph N/A   Clear
8:35 AM 42.8 °F 34.3 °F 30.2 °F 61% 30.25 in 10.0 mi North 19.6 mph 25.3 mph N/A   Clear
8:55 AM 42.8 °F 33.1 °F 28.4 °F 57% 30.27 in 10.0 mi North 25.3 mph 31.1 mph N/A   Clear
9:15 AM 42.8 °F 33.5 °F 28.4 °F 57% 30.29 in 10.0 mi North 23.0 mph 32.2 mph N/A   Clear
9:35 AM 44.6 °F 34.9 °F 28.4 °F 53% 30.31 in 8.0 mi NNE 28.8 mph 36.8 mph N/A   Clear
9:55 AM 44.6 °F 35.1 °F 28.4 °F 53% 30.31 in 10.0 mi NNE 27.6 mph 34.5 mph N/A   Clear
10:15 AM 46.4 °F 37.5 °F 26.6 °F 46% 30.33 in 9.0 mi NNE 27.6 mph 35.7 mph N/A   Clear
10:35 AM 46.4 °F 37.5 °F 26.6 °F 46% 30.34 in 9.0 mi NNE 27.6 mph 41.4 mph N/A   Clear
10:55 AM 46.4 °F 36.9 °F 23.0 °F 40% 30.34 in 8.0 mi NNE 32.2 mph 38.0 mph N/A   Clear
11:15 AM 48.2 °F - 23.0 °F 37% 30.35 in 10.0 mi NNE 21.9 mph 32.2 mph N/A   Clear
11:35 AM 48.2 °F - 23.0 °F 37% 30.36 in 10.0 mi NNE 21.9 mph 32.2 mph N/A   Clear
11:55 AM 51.8 °F - 23.0 °F 33% 30.35 in 10.0 mi NNE 26.5 mph 33.4 mph N/A   Clear
12:15 PM 51.8 °F - 23.0 °F 33% 30.36 in 10.0 mi North 19.6 mph 33.4 mph N/A   Clear
12:35 PM 51.8 °F - 21.2 °F 30% 30.35 in 10.0 mi North 25.3 mph 31.1 mph N/A   Clear
12:55 PM 53.6 °F - 23.0 °F 30% 30.35 in 10.0 mi North 18.4 mph 31.1 mph N/A   Clear
1:15 PM 53.6 °F - 23.0 °F 30% 30.35 in 10.0 mi NNE 24.2 mph 33.4 mph N/A   Clear
1:35 PM 55.4 °F - 23.0 °F 29% 30.34 in 10.0 mi North 21.9 mph 31.1 mph N/A   Clear
1:55 PM 55.4 °F - 23.0 °F 29% 30.33 in 10.0 mi North 25.3 mph 33.4 mph N/A   Clear
2:15 PM 55.4 °F - 23.0 °F 29% 30.32 in 10.0 mi North 23.0 mph 28.8 mph N/A   Clear
2:35 PM 57.2 °F - 23.0 °F 27% 30.31 in 10.0 mi NNE 17.3 mph 28.8 mph N/A   Clear
2:55 PM 57.2 °F - 21.2 °F 25% 30.30 in 10.0 mi NNE 21.9 mph 28.8 mph N/A   Clear
3:15 PM 57.2 °F - 21.2 °F 25% 30.29 in 10.0 mi NNE 20.7 mph 27.6 mph N/A   Clear
3:35 PM 57.2 °F - 21.2 °F 25% 30.29 in 10.0 mi NNE 17.3 mph 26.5 mph N/A   Clear
3:55 PM 59.0 °F - 23.0 °F 25% 30.28 in 10.0 mi NNE 20.7 mph 25.3 mph N/A   Clear
4:15 PM 57.2 °F - 23.0 °F 27% 30.28 in 10.0 mi NNE 18.4 mph 31.1 mph N/A   Clear
4:35 PM 59.0 °F - 23.0 °F 25% 30.27 in 10.0 mi North 16.1 mph 23.0 mph N/A   Clear
4:55 PM 59.0 °F - 21.2 °F 23% 30.27 in 10.0 mi NE 12.7 mph 25.3 mph N/A   Clear
5:15 PM 59.0 °F - 23.0 °F 25% 30.26 in 10.0 mi NNE 13.8 mph 21.9 mph N/A   Clear
5:35 PM 59.0 °F - 23.0 °F 25% 30.26 in 10.0 mi NNE 12.7 mph 19.6 mph N/A   Clear
5:55 PM 59.0 °F - 23.0 °F 25% 30.26 in 10.0 mi NNE 11.5 mph - N/A   Clear
6:15 PM 57.2 °F - 23.0 °F 27% 30.26 in 10.0 mi NNE 12.7 mph 18.4 mph N/A   Clear
6:35 PM 57.2 °F - 23.0 °F 27% 30.25 in 10.0 mi North 12.7 mph - N/A   Scattered Clouds
6:55 PM 57.2 °F - 23.0 °F 27% 30.25 in 10.0 mi NNE 10.4 mph - N/A   Mostly Cloudy
7:15 PM 57.2 °F - 23.0 °F 27% 30.26 in 10.0 mi NNE 8.1 mph - N/A   Partly Cloudy
7:35 PM 55.4 °F - 23.0 °F 29% 30.27 in 10.0 mi NE 9.2 mph - N/A   Clear
7:55 PM 53.6 °F - 23.0 °F 30% 30.27 in 10.0 mi NNE 5.8 mph - N/A   Clear
8:15 PM 51.8 °F - 23.0 °F 33% 30.27 in 10.0 mi North 3.5 mph - N/A   Clear
8:35 PM 51.8 °F - 23.0 °F 33% 30.28 in 10.0 mi North 3.5 mph - N/A   Clear
8:55 PM 50.0 °F - 23.0 °F 35% 30.29 in 10.0 mi North 3.5 mph - N/A   Clear
9:15 PM 48.2 °F - 23.0 °F 37% 30.30 in 10.0 mi Calm Calm - N/A   Clear
9:35 PM 46.4 °F - 23.0 °F 40% 30.30 in 10.0 mi Calm Calm - N/A   Clear
9:55 PM 44.6 °F - 24.8 °F 46% 30.31 in 10.0 mi Calm Calm - N/A   Clear
10:15 PM 44.6 °F 43.1 °F 23.0 °F 43% 30.31 in 10.0 mi North 3.5 mph - N/A   Clear
10:35 PM 41.0 °F - 23.0 °F 49% 30.32 in 10.0 mi Calm Calm - N/A   Clear
10:55 PM 39.2 °F 37.0 °F 23.0 °F 52% 30.32 in 10.0 mi NNE 3.5 mph - N/A   Clear
11:15 PM 37.4 °F - 23.0 °F 56% 30.32 in 10.0 mi Calm Calm - N/A   Clear
11:35 PM 37.4 °F - 23.0 °F 56% 30.32 in 10.0 mi Calm Calm - N/A   Clear
11:55 PM 37.4 °F - 21.2 °F 52% 30.32 in 10.0 mi Calm Calm - N/A   Clear